This demonstration page uses our WeatherBlox Daily Observations layout. Learn more.

Left ArrowRight Arrow

39.01783, -85.05884

Hourly Observations for December 2, 2017

Temp ( °F °C ) Dew Point ( °F °C ) Humidity (%) Winds ( mph kmh ) Pressure ( in mb ) Visibility ( mi km ) Precip ( " mm )
12:52 am 00:52 Clear 38 3.3 30 -1.1 73 73 E 3 6 30.19 1023 10 16 0.00 0.00
1:52 am 01:52 Clear 37 2.8 29 -1.7 73 73 Calm 30.19 1022 10 16 0.00 0.00
2:52 am 02:52 Clear 37 2.8 29 -1.7 73 73 ESE 3 6 30.19 1022 10 16 0.00 0.00
3:52 am 03:52 Mostly Cloudy 38 3.3 30 -1.1 73 73 Calm 30.18 1022 10 16 0.00 0.00
4:52 am 04:52 Mostly Cloudy 37 2.8 31 -0.6 79 79 E 6 9 30.18 1022 10 16 0.00 0.00
5:52 am 05:52 Mostly Cloudy 37 2.8 31 -0.6 79 79 E 5 7 30.19 1022 10 16 0.00 0.00
6:52 am 06:52 Partly Cloudy 37 2.8 30 -1.1 76 76 NNE 3 6 30.21 1023 10 16 0.00 0.00
7:52 am 07:52 Partly Cloudy 34 1.1 30 -1.1 85 85 Calm 30.21 1023 10 16 0.00 0.00
8:52 am 08:52 Mostly Cloudy 37 2.8 32 0 82 82 E 3 6 30.21 1023 10 16 0.00 0.00
9:52 am 09:52 Mostly Cloudy 42 5.6 34 1.1 73 73 NE 6 9 30.21 1023 10 16 0.00 0.00
10:52 am 10:52 Mostly Cloudy 44 6.7 35 1.7 71 71 NE 6 9 30.20 1023 10 16 0.00 0.00
11:52 am 11:52 Partly Cloudy 50 10 36 2.2 59 59 Calm 30.19 1022 10 16 0.00 0.00
12:52 pm 12:52 Partly Cloudy 51 10.6 34 1.1 52 52 Calm 30.16 1021 10 16 0.00 0.00
1:52 pm 13:52 Mostly Sunny 54 12.2 34 1.1 47 47 Calm 30.14 1021 10 16 0.00 0.00
2:52 pm 14:52 Mostly Sunny 55 12.8 32 0 42 42 VRB 3 6 30.12 1020 10 16 0.00 0.00
3:52 pm 15:52 Mostly Sunny 53 11.7 34 1.1 48 48 S 7 11 30.11 1020 10 16 0.00 0.00
4:52 pm 16:52 Mostly Sunny 50 10 33 0.6 52 52 SSW 5 7 30.11 1020 10 16 0.00 0.00
5:52 pm 17:52 Mostly Clear 46 7.8 33 0.6 61 61 WNW 5 7 30.13 1020 10 16 0.00 0.00
6:52 pm 18:52 Mostly Clear 42 5.6 33 0.6 71 71 Calm 30.14 1021 10 16 0.00 0.00
7:52 pm 19:52 Mostly Clear 40 4.4 33 0.6 77 77 Calm 30.16 1021 10 16 0.00 0.00
8:52 pm 20:52 Mostly Clear 40 4.4 32 0 73 73 Calm 30.12 1020 10 16 0.00 0.00
9:52 pm 21:52 Mostly Clear 39 3.9 31 -0.6 73 73 W 8 13 30.18 1022 10 16 0.00 0.00
10:52 pm 22:52 Mostly Clear 38 3.3 31 -0.6 76 76 Calm 30.16 1022 10 16 0.00 0.00
11:52 pm 23:52 Mostly Clear 35 1.7 31 -0.6 85 85 Calm 30.16 1021 10 16 0.00 0.00

Powered by AerisWeather